This demonstration page uses our WeatherBlox Daily Observations layout. Learn more.

Left ArrowRight Arrow

Hourly Observations for January 5, 2015

Temp ( °F °C ) Dew Point ( °F °C ) Humidity (%) Winds ( mph kmh ) Pressure ( in mb ) Visibility ( mi km ) Precip ( " mm )
12:15 am 00:15 Mostly Cloudy 14 -10 1 -17 57 57 W 23 37 30.53 1034 10 16.0934 N/A
12:36 am 00:36 Mostly Cloudy 14 -10 1 -17 57 57 WNW 17 28 30.53 1034 10 16.0934 N/A
12:55 am 00:55 Partly Cloudy 12 -11 1 -17 62 62 WNW 14 22 30.56 1035 10 16.0934 N/A
1:15 am 01:15 Mostly Cloudy 12 -11 1 -17 62 62 WNW 16 26 30.56 1035 7 11.26538 N/A
1:35 am 01:35 Partly Cloudy 12 -11 0 -18 57 57 WNW 16 26 30.56 1035 10 16.0934 N/A
1:55 am 01:55 Partly Cloudy 12 -11 0 -18 57 57 W 16 26 30.59 1036 10 16.0934 N/A
2:15 am 02:15 Clear 12 -11 0 -18 57 57 W 17 28 30.59 1036 10 16.0934 N/A
2:35 am 02:35 Clear 10 -12 0 -18 61 61 W 12 19 30.62 1037 10 16.0934 N/A
2:55 am 02:55 Clear 10 -12 -2 -19 56 56 W 15 24 30.62 1037 10 16.0934 N/A
3:15 am 03:15 Clear 10 -12 -2 -19 56 56 WNW 16 26 30.62 1037 10 16.0934 N/A
3:35 am 03:35 Clear 10 -12 -2 -19 56 56 WNW 14 22 30.62 1037 10 16.0934 N/A
3:56 am 03:56 Clear 10 -12 -2 -19 56 56 W 16 26 30.62 1037 10 16.0934 N/A
4:15 am 04:15 Clear 10 -12 -4 -20 52 52 WNW 18 30 30.62 1037 10 16.0934 N/A
4:35 am 04:35 Clear 9 -13 -4 -20 56 56 WNW 15 24 30.65 1038 10 16.0934 N/A
4:55 am 04:55 Clear 9 -13 -4 -20 56 56 WNW 14 22 30.65 1038 10 16.0934 N/A
5:15 am 05:15 Partly Cloudy 9 -13 -4 -20 56 56 WNW 14 22 30.62 1037 10 16.0934 N/A
5:35 am 05:35 Partly Cloudy 9 -13 -4 -20 56 56 WNW 12 19 30.65 1038 10 16.0934 N/A
5:55 am 05:55 Clear 9 -13 -6 -21 51 51 WNW 17 28 30.65 1038 10 16.0934 N/A
6:15 am 06:15 Clear 7 -14 -4 -20 61 61 W 15 24 30.68 1039 10 16.0934 N/A
6:35 am 06:35 Clear 7 -14 -4 -20 61 61 WNW 15 24 30.68 1039 10 16.0934 N/A
6:55 am 06:55 Partly Cloudy 7 -14 -4 -20 61 61 WNW 14 22 30.68 1039 10 16.0934 N/A
7:15 am 07:15 Mostly Cloudy 7 -14 -6 -21 56 56 WNW 16 26 30.68 1039 10 16.0934 N/A
7:35 am 07:35 Partly Cloudy 7 -14 -6 -21 56 56 WNW 15 24 30.71 1040 10 16.0934 N/A
7:55 am 07:55 Partly Cloudy 7 -14 -6 -21 56 56 WNW 17 28 30.71 1040 10 16.0934 N/A
8:15 am 08:15 Partly Cloudy 5 -15 -6 -21 60 60 WNW 9 15 30.71 1040 10 16.0934 N/A
8:35 am 08:35 Sunny 7 -14 -4 -20 61 61 WNW 10 17 30.71 1040 10 16.0934 N/A
8:56 am 08:56 Sunny 7 -14 -6 -21 56 56 WNW 15 24 30.74 1041 10 16.0934 N/A
9:15 am 09:15 Sunny 7 -14 -6 -21 56 56 W 15 24 30.74 1041 10 16.0934 N/A
9:35 am 09:35 Sunny 7 -14 -8 -22 51 51 WNW 14 22 30.74 1041 10 16.0934 N/A
9:55 am 09:55 Sunny 9 -13 -8 -22 47 47 W 10 17 30.74 1041 10 16.0934 N/A
10:15 am 10:15 Sunny 9 -13 -8 -22 47 47 WNW 12 19 30.74 1041 10 16.0934 N/A
10:36 am 10:36 Sunny 9 -13 -9 -23 43 43 WNW 13 20 30.74 1041 10 16.0934 N/A
10:55 am 10:55 Sunny 9 -13 -9 -23 43 43 W 14 22 30.74 1041 10 16.0934 N/A
11:15 am 11:15 Sunny 9 -13 -8 -22 47 47 WNW 10 17 30.74 1041 10 16.0934 N/A
11:35 am 11:35 Sunny 10 -12 -8 -22 44 44 WNW 8 13 30.74 1041 10 16.0934 N/A
11:55 am 11:55 Sunny 12 -11 -6 -21 44 44 W 8 13 30.74 1041 10 16.0934 N/A
12:15 pm 12:15 Sunny 10 -12 -8 -22 44 44 W 9 15 30.71 1040 10 16.0934 N/A
12:35 pm 12:35 Sunny 12 -11 -8 -22 40 40 WNW 12 19 30.71 1040 10 16.0934 N/A
12:55 pm 12:55 Sunny 12 -11 -8 -22 40 40 W 10 17 30.68 1039 10 16.0934 N/A
1:15 pm 13:15 Sunny 12 -11 -9 -23 37 37 WNW 12 19 30.68 1039 10 16.0934 N/A
1:35 pm 13:35 Sunny 12 -11 -9 -23 37 37 WSW 5 7 30.68 1039 10 16.0934 N/A
1:56 pm 13:56 Sunny 12 -11 -8 -22 40 40 W 8 13 30.65 1038 10 16.0934 N/A
2:15 pm 14:15 Sunny 14 -10 -8 -22 37 37 W 9 15 30.65 1038 10 16.0934 N/A
2:35 pm 14:35 Sunny 12 -11 -8 -22 40 40 WNW 7 11 30.68 1039 10 16.0934 N/A
2:55 pm 14:55 Sunny 12 -11 -8 -22 40 40 WSW 5 7 30.65 1038 10 16.0934 N/A
3:15 pm 15:15 Sunny 12 -11 -8 -22 40 40 W 9 15 30.65 1038 10 16.0934 N/A
3:35 pm 15:35 Sunny 12 -11 -8 -22 40 40 W 7 11 30.65 1038 10 16.0934 N/A
3:55 pm 15:55 Sunny 12 -11 -6 -21 44 44 W 8 13 30.68 1039 10 16.0934 N/A
4:15 pm 16:15 Sunny 12 -11 -6 -21 44 44 W 7 11 30.68 1039 10 16.0934 N/A
4:35 pm 16:35 Sunny 12 -11 -6 -21 44 44 W 6 9 30.65 1038 10 16.0934 N/A
4:55 pm 16:55 Sunny 12 -11 -4 -20 48 48 WSW 8 13 30.65 1038 10 16.0934 N/A
5:15 pm 17:15 Sunny 12 -11 -6 -21 44 44 WSW 6 9 30.65 1038 10 16.0934 N/A
5:35 pm 17:35 Clear 12 -11 -6 -21 44 44 W 5 7 30.62 1037 10 16.0934 N/A
5:55 pm 17:55 Clear 12 -11 -4 -20 48 48 WSW 5 7 30.59 1036 10 16.0934 N/A
6:15 pm 18:15 Clear 14 -10 -4 -20 44 44 SSW 7 11 30.59 1036 10 16.0934 N/A
6:35 pm 18:35 Clear 14 -10 -4 -20 44 44 WSW 6 9 30.59 1036 10 16.0934 N/A
6:56 pm 18:56 Clear 14 -10 -4 -20 44 44 SW 3 6 30.56 1035 10 16.0934 N/A
7:15 pm 19:15 Clear 14 -10 -6 -21 41 41 Calm 30.56 1035 10 16.0934 N/A
7:35 pm 19:35 Clear 14 -10 -6 -21 41 41 Calm 30.56 1035 10 16.0934 N/A
7:55 pm 19:55 Clear 14 -10 -4 -20 44 44 SSW 3 6 30.53 1034 10 16.0934 N/A
8:15 pm 20:15 Partly Cloudy 14 -10 -4 -20 44 44 S 5 7 30.53 1034 10 16.0934 N/A
8:36 pm 20:36 Mostly Cloudy 14 -10 -2 -19 48 48 S 3 6 30.5 1033 10 16.0934 N/A
8:55 pm 20:55 Cloudy 14 -10 1 -17 57 57 S 6 9 30.5 1033 4 6.43736 N/A
9:15 pm 21:15 Cloudy 14 -10 3 -16 62 62 S 8 13 30.48 1032 4 6.43736 N/A
9:36 pm 21:36 Cloudy 14 -10 5 -15 67 67 S 7 11 30.48 1032 3 4.82802 N/A
9:55 pm 21:55 Cloudy 14 -10 7 -14 73 73 S 8 13 30.42 1030 2.5 4.02335 N/A
10:15 pm 22:15 Cloudy 14 -10 7 -14 73 73 SSE 8 13 30.42 1030 2.5 4.02335 N/A
10:35 pm 22:35 Cloudy 14 -10 7 -14 73 73 S 7 11 30.42 1030 3 4.82802 N/A
10:55 pm 22:55 Cloudy 14 -10 9 -13 79 79 S 6 9 30.42 1030 1 1.60934 N/A
11:15 pm 23:15 Cloudy 14 -10 9 -13 79 79 S 3 6 30.39 1029 1.5 2.41401 N/A
11:35 pm 23:35 Cloudy 16 -9 10 -12 79 79 S 3 6 30.39 1029 1.25 2.011675 N/A
11:55 pm 23:55 Cloudy 16 -9 10 -12 79 79 Calm 30.39 1029 1.25 2.011675 N/A

Powered by AerisWeather